Regional Weather Roundup
Issued by NWS

Home | Current Version | Previous Version | Text Only | Print | Product List | Glossary Off
Versions: 1 2 3 4 5 6 7 8 9 10 11 12 13 14 15 16 17 18 19 20 21 22 23 24 25 26 27 28 29 30 31 32 33 34 35 36 37 38 39 40 41 42 43 44 45 46 47 48 49 50

000
ASUS43 KMPX 040201
RWRMN
WEATHER ROUNDUP FOR MINNESOTA
NATIONAL WEATHER SERVICE TWIN CITIES/CHANHASSEN MN
900 PM CDT MON AUG 03 2015


NOTE: "FAIR" INDICATES FEW OR NO CLOUDS BELOW 12,000 FEET WITH NO
SIGNIFICANT WEATHER AND/OR OBSTRUCTIONS TO VISIBILITY. N/A MEANS
CURRENT SKY AND/OR WEATHER CONDITIONS ARE NOT AVAILABLE.

MNZ060>063-068>070-040300-
   Twin Cities Metro

CITY           SKY/WX    TMP DP  RH WIND       PRES   REMARKS
TWIN CITIES    PTCLDY    74  52  46 W8        29.89S
ST PAUL        MOCLDY    73  51  46 NW8       29.89R
CRYSTAL        PTCLDY    73  51  46 NW8       29.88S
BLAINE         PTCLDY    72  52  49 NW5       29.89S
LAKEVILLE      CLEAR     66  54  63 W5        29.91S
EDEN PRAIRIE   CLEAR     71  53  52 W7        29.90R
SOUTH ST PAUL  MOCLDY    74  51  44 W6        29.89S
LAKE ELMO      CLOUDY    68  55  64 CALM      29.90S
$$
MNZ001>005-007-008-013>017-022>024-027-028-040300-
   Northwest Minnesota

CITY           SKY/WX    TMP DP  RH WIND       PRES   REMARKS
BEMIDJI        PTCLDY    61  49  66 W5        29.92S
HALLOCK        CLEAR     66  52  59 N6        29.90R
ROSEAU         CLEAR     64  55  72 CALM      29.90S
WARROAD        CLEAR     63  57  82 CALM      29.90S
THIEF RVR FALL CLEAR     64  52  63 CALM      29.92R
CROOKSTON      CLEAR     70  52  52 CALM      29.91S
FOSSTON        CLEAR     59  46  63 CALM      29.93S
DETROIT LAKES  CLEAR     68  50  52 CALM      29.95R
MOORHEAD       CLEAR     68  52  56 CALM      29.93R
PARK RAPIDS    CLEAR     63  51  65 NW5       29.93S
MAHNOMEN       FAIR      65  52  64 CALM      29.92S
$$
MNZ006-009>011-018-025>026-040300-
   North Central Minnesota

CITY           SKY/WX    TMP DP  RH WIND       PRES   REMARKS
BAUDETTE       CLEAR     61  52  72 NW5       29.89R
FLAG ISLAND    CLOUDY    66  52  59 N12       29.88R
INTL FALLS     CLOUDY    61  54  77 CALM      29.87S
WASKISH        CLOUDY    66  54  63 W8        29.90S
BIG FORK       CLEAR     57  52  82 CALM      29.90S
LONGVILLE      MOCLDY    61  52  72 CALM      29.92R
GRAND RAPIDS   CLEAR     59  48  67 CALM      29.92R
CRANE LAKE     CLOUDY    57  54  88 W3        29.88R
ORR            CLOUDY    59  54  82 CALM      29.87R
COOK           CLOUDY    57  55  94 CALM      29.90R
WALKER         FAIR      63  51  65 CALM      29.92R
$$
MNZ012-019>021-037-040300-
   Northeast Minnesota

CITY           SKY/WX    TMP DP  RH WIND       PRES   REMARKS
DULUTH         MOCLDY    65  51  60 NW10      29.89R
ELY            PTCLDY    57  55  94 W7        29.87R
HIBBING        MOCLDY    60  51  72 NW8       29.90R
EVELETH        MOCLDY    63  50  63 NW8       29.91R
DULUTH HARBOR  MOCLDY    68  55  64 NW12      29.87R
TWO HARBORS    MOCLDY    64  57  77 N7        29.86R
SILVER BAY     MOCLDY    61  55  82 W6        29.85R
GRAND MARAIS     N/A     65  54  67 CALM      29.80R
G MARAIS ARPRT PTCLDY    55  52  88 NW5       29.84R
$$
MNZ029>031-032-039>041-046>048-054>057-064-040300-
   West Central Minnesota

CITY           SKY/WX    TMP DP  RH WIND       PRES   REMARKS
FERGUS FALLS   CLEAR     68  54  60 CALM      29.93R
WHEATON        CLEAR     68  52  56 CALM      29.95S
MORRIS         CLEAR     66  55  68 NW3       29.93S
ALEXANDRIA     CLEAR     66  52  60 N5        29.95S
ELBOW LAKE     FAIR      65  55  69 CALM      29.94R
WADENA         CLEAR     63  48  59 N5        29.93S
GLENWOOD       CLEAR     63  54  72 NW6       29.95R
APPLETON       CLEAR     68  54  60 N5        29.94R
BENSON         CLEAR     64  50  59 CALM      29.94R
ORTONVILLE     CLEAR     66  55  68 N3        29.94S
MADISON        CLEAR     66  54  63 N3        29.95R
WILLMAR        FAIR      66  55  68 CALM      29.95S
$$
MNZ033>034-036-042>043-049>051-058-059-040300-
   Central Minnesota

CITY           SKY/WX    TMP DP  RH WIND       PRES   REMARKS
ST CLOUD       CLEAR     66  52  60 NW6       29.90S
SAUK CENTRE    FAIR      65  51  60 W3        29.94R
PAYNESVILLE    CLEAR     59  53  80 CALM      29.94R
AITKIN         CLEAR     61  54  77 CALM      29.91R
PINE RIVER     CLEAR     66  52  59 CALM      29.96R
BRAINERD       PTCLDY    67  51  56 N7        29.92R
STAPLES        CLEAR     63  48  59 NW5       29.93R
LONG PRAIRIE   FAIR      64  50  59 W6        29.94R
LITTLE FALLS     N/A     68  50  52 CALM      29.92R
LITCHFIELD     CLEAR     70  54  56 W3        29.94R
BUFFALO        CLEAR     69  52  53 CALM      29.91S
MAPLE LAKE     CLEAR     68  55  64 W3        29.92R
$$
MNZ037-044-045-052-053-040300-
   East Central Minnesota

CITY           SKY/WX    TMP DP  RH WIND       PRES   REMARKS
PRINCETON      CLEAR     68  55  64 CALM      29.90S
MORA           CLEAR     63  55  77 CALM      29.91S
CAMBRIDGE      CLEAR     70  54  56 CALM      29.88S
RUSH CITY      PTCLDY    65  56  71 NW3       29.89S
MOOSE LAKE     PTCLDY    64  52  63 N5        29.89R
HINCKLEY       FAIR      64  55  72 NW5       29.90R
CLOQUET        CLOUDY    64  50  59 NW8G16    29.90R
MCGREGOR       CLEAR     63  52  67 NW3       29.92R
$$
MNZ071>073-080-081-089-090-097-098-040300-
   Southwest Minnesota

CITY           SKY/WX    TMP DP  RH WIND       PRES   REMARKS
MONTEVIDEO     CLEAR     66  52  59 N3        29.96S
GRANITE FALLS  CLEAR     65  57  76 CALM      29.95S
CANBY          CLEAR     67  57  68 CALM      29.97R
MARSHALL       CLEAR     70  54  56 N3        29.97R
REDWOOD FALLS  CLEAR     71  53  52 CALM      29.94R
OLIVIA         CLEAR     64  54  68 CALM      29.94R
PIPESTONE      CLEAR     73  57  56 CALM      29.98R
WINDOM         CLEAR     66  61  82 CALM      29.96R
WORTHINGTON    PTCLDY    66  57  72 W3        29.97R
JACKSON        CLEAR     68  59  73 W3        29.97R
TRACY          CLEAR     70  59  68 CALM      29.96S
SLAYTON        CLEAR     69  60  74 CALM      29.98R
$$
MNZ065>067-074>077-082>085-091>093-040300-
   South Central Minnesota

CITY           SKY/WX    TMP DP  RH WIND       PRES   REMARKS
MANKATO        CLEAR     70  52  52 W5        29.93S
NEW ULM        CLEAR     68  54  60 NW5       29.94R
ST JAMES       CLEAR     66  59  77 N3        29.95S
FAIRMONT       CLEAR     70  54  56 CALM      29.94S
GLENCOE        CLEAR     69  57  64 CALM      29.92S
FARIBAULT      CLEAR     63  57  82 CALM      29.93R
OWATONNA       CLEAR     61  55  82 W3        29.93S
WASECA         CLEAR     63  55  77 CALM      29.95R
ALBERT LEA     CLEAR     66  55  68 CALM      29.95R
$$
MNZ078>079-086>088-094>096-040300-
   Southeast Minnesota

CITY           SKY/WX    TMP DP  RH WIND       PRES   REMARKS
ROCHESTER      CLEAR     62  54  74 W7        29.93S
RED WING       PTCLDY    66  57  72 CALM      29.88S
STANTON        CLEAR     67  53  60 CALM      29.90S
DODGE CENTER   PTCLDY    64  54  68 W6        29.94R
WINONA         CLEAR     73  52  46 CALM      29.90R
AUSTIN         CLEAR     70  55  60 CALM      29.94R
PRESTON        CLEAR     64  52  63 W7        29.93S
$$
ABBREVIATIONS USED IN REMARKS
   TC - TEMPERATURES IN CELSIUS
  WCI - WIND CHILL INDEX
   HX - HEAT INDEX
  VSB - VISIBILITY
$$


USA.gov is the U.S. government's official web portal to all federal, state and local government web resources and services.